Tracking 19407 objects as of 15-Dec-2018
HD Live streaming from Space Station
objects crossing your sky now

CZ-4 R/B

Track CZ-4 R/B now!
10-day predictions
CZ-4 R/B is classified as:


NORAD ID: 29507
Int'l Code: 2006-046C
Perigee: 540.4 km
Apogee: 605.4 km
Inclination: 97.8 °
Period: 96.0 minutes
Semi major axis: 6943 km
RCS: 4.43 m2 (large)
Launch date: October 23, 2006
Source: People's Republic of China (PRC)
Launch site: Taiyaun Space Center, China (TSC)

Note: This is a ROCKET BODY
aabbcc
Your satellite tracking list
Your tracking list is empty




NASA's NSSDC Master Catalog

Two Line Element Set (TLE):
1 29507U 06046C   18348.52338275  .00000901  00000-0  75152-4 0  9992
2 29507  97.7750   1.3397 0046829 214.3836 145.4355 15.00368646662807
Source of the keplerian elements: AFSPC